Cannes, France

2:41 PM CET on December 16, 2017 (GMT +0100)
Mandelieu

Weather History for LFMD - September, 2013

Change the Weather History Date:

Wednesday, September 4, 2013

  Actual Average Record
Temperature  
Mean Temperature 71 °F -  
Max Temperature 82 °F 72 °F 84 °F (2014)
Min Temperature 60 °F 60 °F 54 °F (2017)
Cooling Degree Days 6    
Growing Degree Days 21 (Base 50)    
Moisture  
Dew Point 59 °F    
Average Humidity 63    
Maximum Humidity 82    
Minimum Humidity 48    
Precipitation  
Precipitation 0.00 in - - ()
Sea Level Pressure  
Sea Level Pressure 30.15 in    
Wind  
Wind Speed 3 mph ()    
Max Wind Speed 8 mph    
Max Gust Speed -    
Visibility 6.2 miles    
Events      
Averages and records for this station are not official NWS values.
T = Trace of Precipitation, MM = Missing Value Source: Averaged Metar Reports

Daily Weather History Graph

Daily Weather History Graph

Search for Another Location

Airport or City:

Trip Planner

Search our weather history database for the weather conditions in past years. The results will help you decide how hot, cold, wet, or windy it might be!

Date:

Astronomy

Sep. 04, 2013 Rise Set
Actual Time 6:59 AM CEST 8:02 PM CEST
Civil Twilight 6:29 AM CEST 8:31 PM CEST
Nautical Twilight 5:54 AM CEST 9:06 PM CEST
Astronomical Twilight 5:18 AM CEST 9:43 PM CEST
Moon 5:55 AM CEST (9/4) 7:12 PM CEST (9/4)
Length of Visible Light 14h 01m
Length of Day
13h 02m
Waning Crescent, 1% of the Moon is Illuminated
Sep 4
Waning Crescent
Sep 5
New
Sep 12
First Quarter
Sep 19
Full
Sep 27
Last Quarter

Hourly Weather History & Observations

Time (CEST) Temp. Heat Index Dew Point Humidity Pressure Visibility Wind Dir Wind Speed Gust Speed Precip Events Conditions
12:00 AM 66.2 °F - 59.0 °F 78% 30.18 in 6.2 mi Variable 1.2 mph - N/A   Unknown
12:30 AM 66.2 °F - 57.2 °F 73% 30.18 in 6.2 mi Variable 2.3 mph - N/A   Unknown
1:00 AM 66.2 °F - 57.2 °F 73% 30.18 in 6.2 mi Variable 3.5 mph - N/A   Unknown
1:30 AM 64.4 °F - 57.2 °F 77% 30.18 in 6.2 mi Variable 2.3 mph - N/A   Unknown
2:00 AM 64.4 °F - 55.4 °F 73% 30.18 in 6.2 mi Variable 3.5 mph - N/A   Unknown
2:30 AM 64.4 °F - 55.4 °F 73% 30.18 in 6.2 mi North 3.5 mph - N/A   Unknown
3:00 AM 62.6 °F - 55.4 °F 77% 30.18 in 6.2 mi Variable 3.5 mph - N/A   Unknown
3:30 AM 62.6 °F - 55.4 °F 77% 30.18 in 6.2 mi Variable 3.5 mph - N/A   Unknown
4:00 AM 62.6 °F - 55.4 °F 77% 30.18 in 6.2 mi Variable 2.3 mph - N/A   Unknown
4:30 AM 62.6 °F - 55.4 °F 77% 30.18 in 6.2 mi North 3.5 mph - N/A   Unknown
5:00 AM 62.6 °F - 55.4 °F 77% 30.18 in 6.2 mi Variable 3.5 mph - N/A   Unknown
5:30 AM 62.6 °F - 55.4 °F 77% 30.18 in 6.2 mi Variable 2.3 mph - N/A   Unknown
6:00 AM 62.6 °F - 55.4 °F 77% 30.18 in 6.2 mi Variable 2.3 mph - N/A   Unknown
6:30 AM 60.8 °F - 55.4 °F 82% 30.18 in 6.2 mi Variable 2.3 mph - N/A   Unknown
7:00 AM 62.6 °F - 53.6 °F 72% 30.18 in 6.2 mi North 3.5 mph - N/A   Unknown
7:30 AM 62.6 °F - 53.6 °F 72% 30.18 in 6.2 mi North 3.5 mph - N/A   Unknown
8:00 AM 64.4 °F - 55.4 °F 73% 30.18 in 6.2 mi North 3.5 mph - N/A   Unknown
8:30 AM 68.0 °F - 55.4 °F 64% 30.18 in 6.2 mi North 4.6 mph - N/A   Unknown
9:00 AM 71.6 °F - 57.2 °F 60% 30.18 in 6.2 mi Variable 2.3 mph - N/A   Unknown
9:30 AM 77.0 °F - 57.2 °F 50% 30.18 in 6.2 mi Calm Calm - N/A   Unknown
10:00 AM 78.8 °F - 59.0 °F 51% 30.18 in 6.2 mi South 3.5 mph - N/A   Unknown
10:30 AM 78.8 °F - 59.0 °F 51% 30.18 in 6.2 mi South 5.8 mph - N/A   Unknown
11:00 AM 80.6 °F 81.1 °F 59.0 °F 48% 30.18 in 6.2 mi SSE 5.8 mph - N/A   Unknown
11:30 AM 78.8 °F - 66.2 °F 65% 30.18 in 6.2 mi South 5.8 mph - N/A   Unknown
12:00 PM 80.6 °F 82.7 °F 66.2 °F 61% 30.18 in 6.2 mi South 6.9 mph - N/A   Unknown
12:30 PM 80.6 °F 81.8 °F 62.6 °F 54% 30.18 in 6.2 mi South 4.6 mph - N/A   Unknown
1:00 PM 80.6 °F 81.8 °F 62.6 °F 54% 30.18 in 6.2 mi SSE 5.8 mph - N/A   Unknown
1:30 PM 82.4 °F 83.4 °F 62.6 °F 51% 30.18 in 6.2 mi South 5.8 mph - N/A   Unknown
2:00 PM 82.4 °F 83.4 °F 62.6 °F 51% 30.15 in 6.2 mi South 6.9 mph - N/A   Unknown
2:30 PM 82.4 °F 83.4 °F 62.6 °F 51% 30.15 in 6.2 mi South 6.9 mph - N/A   Unknown
3:00 PM 82.4 °F 82.9 °F 60.8 °F 48% 30.15 in 6.2 mi South 8.1 mph - N/A   Unknown
3:30 PM 80.6 °F 83.2 °F 68.0 °F 65% 30.15 in 6.2 mi South 8.1 mph - N/A   Unknown
4:00 PM 82.4 °F 84.6 °F 66.2 °F 58% 30.12 in 6.2 mi SSE 5.8 mph - N/A   Unknown
4:30 PM 82.4 °F 83.4 °F 62.6 °F 51% 30.12 in 6.2 mi South 5.8 mph - N/A   Unknown
5:00 PM 82.4 °F 83.9 °F 64.4 °F 54% 30.12 in 6.2 mi SSE 4.6 mph - N/A   Unknown
5:30 PM 80.6 °F 82.7 °F 66.2 °F 61% 30.12 in 6.2 mi SSE 6.9 mph - N/A   Unknown
6:00 PM 80.6 °F 82.3 °F 64.4 °F 58% 30.12 in 6.2 mi SSE 6.9 mph - N/A   Unknown
6:30 PM 80.6 °F 82.3 °F 64.4 °F 58% 30.09 in 6.2 mi SSE 5.8 mph - N/A   Unknown
7:00 PM 80.6 °F 81.1 °F 59.0 °F 48% 30.09 in 6.2 mi SE 3.5 mph - N/A   Unknown
7:30 PM 78.8 °F - 60.8 °F 54% 30.09 in 6.2 mi Variable 1.2 mph - N/A   Unknown
8:00 PM 77.0 °F - 59.0 °F 54% 30.09 in 6.2 mi Calm Calm - N/A   Unknown
8:30 PM 73.4 °F - 59.0 °F 61% 30.09 in 6.2 mi Calm Calm - N/A   Unknown
9:00 PM 71.6 °F - 55.4 °F 57% 30.09 in 6.2 mi North 3.5 mph - N/A   Unknown
9:30 PM 69.8 °F - 53.6 °F 56% 30.09 in 6.2 mi Variable 3.5 mph - N/A   Unknown
10:00 PM 69.8 °F - 55.4 °F 60% 30.09 in 6.2 mi North 3.5 mph - N/A   Unknown
10:30 PM 68.0 °F - 55.4 °F 64% 30.09 in 6.2 mi Variable 2.3 mph - N/A   Unknown
11:00 PM 68.0 °F - 53.6 °F 60% 30.09 in 6.2 mi Variable 2.3 mph - N/A   Unknown
11:30 PM 68.0 °F - 53.6 °F 60% 30.09 in 6.2 mi Variable 3.5 mph - N/A   Unknown